Flag for Canada Weather past 2 weeks in Creston, British Columbia, Canada

Now
52 °F

Cool.


Feels Like: 49 °F
Forecast: 32 / 51 °F
Wind: 7 mph from South

Location: Creston


UV Index: 3 (Moderate)

Visibility: N/A


Pressure: 30.00 "Hg

Humidity: 43%

Dew point: 29 °F

Location of CrestonLocation

Historic Weather in Creston

°F

Creston temperature yesterday

Maximum temperature yesterday: 56 °F (at 1:00 PM)
Minimum temperature yesterday: 41 °F (at 7:00 AM)
Average temperature yesterday: 48 °F

Past Weeks' High & Low Weather Summary

 TemperatureHumidityPressure
High69 °F (Apr 8, 5:00 PM)100% (Apr 6, 8:00 AM)30.42 "Hg (Apr 6, 8:00 AM)
Low31 °F (Apr 2, 6:00 AM)16% (Apr 14, 6:00 PM)29.76 "Hg (Apr 1, 4:00 PM)
Average46 °F55%30.01 "Hg
* Reported Apr 1 11:00 AM — Apr 16 11:00 AM, Creston, Weather by CustomWeather, © 2014

Note: Actual official high and low records may vary slightly from our data, if they occured in-between our weather recording intervals... More about our weather records

Advertising

Historic Weather Conditions — Data for Previous 24 hours

 ConditionsComfort  
Time TempWeatherWind HumidityBarometerVisibility
11:00 AM
Apr 16
46 °FCool.2 mph67%30.02 "HgN/A
10:00 AM46 °FCool.3 mph58%30.01 "HgN/A
9:00 AM43 °FQuite cool.2 mph66%30.03 "HgN/A
8:00 AM41 °FQuite cool.2 mph65%30.03 "HgN/A
7:00 AM37 °FChilly.6 mph69%30.03 "HgN/A
6:00 AM36 °FChilly.7 mph69%30.02 "HgN/A
5:00 AM35 °FChilly.6 mph70%30.01 "HgN/A
4:00 AM36 °FChilly.6 mph66%30.00 "HgN/A
3:00 AM38 °FChilly.6 mph65%30.00 "HgN/A
2:00 AM38 °FChilly.7 mph64%29.98 "HgN/A
1:00 AM40 °FQuite cool.6 mph59%29.97 "HgN/A
12:00 AM41 °FQuite cool.7 mph58%29.97 "HgN/A
11:00 PM
Apr 15
44 °FQuite cool.2 mph50%29.95 "HgN/A
10:00 PM46 °FCool.5 mph49%29.93 "HgN/A
9:00 PM47 °FCool.5 mph48%29.92 "HgN/A
8:00 PM49 °FCool.2 mph43%29.91 "HgN/A
7:00 PM52 °FCool.5 mph32%29.88 "HgN/A
6:00 PM55 °FCool.13 mph31%29.87 "HgN/A
5:00 PM55 °FCool.8 mph42%29.87 "HgN/A
4:00 PM54 °FCool.5 mph40%29.86 "HgN/A
3:00 PM46 °FCool.18 mph53%29.90 "HgN/A
2:00 PM53 °FCool.6 mph48%29.86 "HgN/A
1:00 PM56 °FRefreshingly cool.1 mph48%29.86 "HgN/A
12:00 PM48 °FCool.7 mph58%29.88 "HgN/A
Weather by CustomWeather, © 2014

See weather overview